Location: Silverdale
(47.6506°N, 122.6941°W)
Time: 03:41:21
(UTC+00:00)

Altair - Pass Details

Date: 03 October 2022
Orbit: 1501 x 1682 km, 47.2° (Epoch: 05 December)

Event Time Altitude Azimuth Distance (km) Brightness Sun altitude
Rises 10:21:31 0° 169° (S) 4,725 - -36.8°
Exits shadow 10:26:01 - 149° (SSE) 3,926 9.5 -36.3°
Reaches altitude 10° 10:27:11 10° 143° (SE) 3,791 9.5 -36.2°
Maximum altitude 10:30:36 12° 121° (ESE) 3,633 9.6 -35.7°
Drops below altitude 10° 10:34:02 10° 100° (E) 3,850 10.0 -35.3°
Sets 10:39:52 0° 74° (ENE) 4,882 11.0 -34.5°
